RH
18 19 19 18 18 22 25 42 54 60 60 65 61 70 72 78 84 80 77 74 70 67 58 58 56 48 50 44 51 45 43 41
17 18 20 21 22 25 25 33 52 52 56 61 64 64 72 76 80 81 79 79 77 75 64 62 56 48 49 55 51 54 46 46
20 20 21 26 25 26 25 28 37 49 49 52 61 60 59 74 82 82 80 80 80 79 71 67 57 48 55 55 56 50 47 48
19 22 28 35 36 35 29 28 31 39 48 48 68 72 76 88 92 87 86 82 81 80 75 71 64 54 54 59 59 56 51 51
18 20 23 27 30 33 32 31 27 34 48 58 74 76 80 80 82 87 86 87 85 82 80 77 75 62 58 59 56 55 54 57
27 30 29 31 35 42 43 38 32 33 42 56 68 78 74 71 82 88 88 89 87 85 83 82 79 68 62 61 63 63 54 54
33 34 35 36 38 44 47 42 37 39 45 64 70 80 79 78 83 91 92 91 89 89 85 83 81 75 67 63 66 65 61 58
34 34 32 34 40 45 46 42 37 39 44 64 71 74 79 81 79 86 90 94 94 94 88 87 84 80 73 65 67 68 66 63
30 30 29 30 35 38 41 39 42 38 48 57 67 72 71 73 77 79 80 88 91 90 90 88 86 84 80 76 73 68 71 66
27 27 29 31 37 41 44 42 39 44 48 50 70 73 74 73 74 76 80 80 86 90 91 91 91 88 86 83 75 75 72 73
27 27 29 30 37 40 47 46 41 43 48 53 61 66 71 72 72 75 78 82 82 90 91 91 91 90 89 87 83 77 76 75
30 27 26 28 34 38 44 47 51 53 51 53 58 69 70 73 75 74 73 76 84 89 91 92 91 93 91 91 89 84 81 80
48 46 38 29 29 34 40 46 49 54 57 59 62 63 66 75 78 72 76 76 77 84 90 93 92 91 92 93 93 92 87 85
48 49 53 50 37 32 32 38 43 50 50 64 65 66 66 69 80 85 88 81 78 81 90 93 94 93 94 93 92 91 90 87
42 43 42 37 38 38 35 34 37 47 52 60 71 71 73 75 75 79 90 93 90 87 91 92 93 93 93 93 94 93 91 90
36 38 35 35 35 33 32 37 44 42 47 56 65 75 75 79 86 95 94 98 99 98 93 95 93 94 94 93 94 94 94 93
29 26 25 26 28 29 30 34 40 48 48 52 53 62 67 79 84 88 90 97 99 99 100 98 96 96 100 100 96 95 94 94
25 24 22 25 28 28 35 31 31 35 45 46 46 54 66 74 76 80 86 94 98 99 99 99 99 97 100 100 100 96 97 98
22 25 25 24 26 29 31 29 32 36 37 44 48 50 65 68 73 80 86 91 96 98 99 99 99 99 100 100 100 97 100 99
Wind_Speed
18 19 20 20 22 21 21 20 21 19 15 15 14 13 15 12 13 14 20 15 19 16 13 13 15 12 11 11 13 12 11 11
22 19 19 19 19 20 22 20 22 16 15 14 13 15 13 13 12 19 21 17 18 17 13 14 16 15 15 15 12 15 12 11
21 20 18 19 19 19 20 21 20 20 15 14 12 13 14 11 11 15 16 19 17 16 16 15 18 14 16 17 15 11 11 12
21 21 16 8 10 13 16 18 20 19 21 14 10 9 9 8 10 11 15 20 19 19 19 14 17 14 13 15 17 19 14 13
20 20 19 16 14 14 18 19 22 20 20 14 18 12 12 10 11 12 15 20 20 20 17 14 14 12 14 15 15 16 15 16
5 3 7 7 8 6 11 14 19 19 19 19 16 15 11 10 10 14 15 16 19 20 19 18 17 13 14 17 16 16 16 14
6 6 6 8 7 8 11 14 17 15 15 20 21 20 16 12 13 11 11 11 14 20 21 19 18 17 16 16 18 20 17 16
8 9 6 4 3 3 5 9 15 17 18 18 20 20 20 17 14 13 12 11 13 16 20 20 17 18 18 17 19 19 20 16
8 4 3 3 1 4 6 2 4 8 10 14 17 18 13 14 15 12 13 12 12 16 17 18 20 20 18 18 15 15 19 17
8 7 6 6 7 6 6 7 5 4 5 9 11 14 17 15 19 17 13 14 12 18 19 19 18 20 20 18 15 18 17 19
8 7 7 8 8 8 10 9 6 6 6 6 5 8 10 14 16 19 19 17 17 17 19 21 21 21 21 21 17 17 19 15
9 9 8 7 7 8 9 10 9 8 7 7 6 6 10 11 11 17 18 17 18 17 19 20 21 20 20 20 20 20 21 19
6 7 11 12 10 7 8 9 9 10 8 7 8 8 9 11 11 12 15 17 17 18 18 19 21 20 20 21 21 18 21 21
5 7 7 9 12 12 11 8 9 10 11 9 7 8 9 9 9 9 10 11 17 17 18 20 20 21 20 21 22 21 21 22
6 5 4 4 9 11 12 12 10 8 9 10 8 8 8 8 10 11 8 9 11 14 17 19 20 20 21 21 21 21 21 21
7 7 5 4 6 8 10 11 11 12 9 9 10 7 5 6 7 7 10 7 8 8 13 15 18 18 17 21 20 21 21 20
9 8 6 5 6 9 8 10 7 9 13 11 9 12 6 4 6 9 8 7 5 7 8 9 16 13 18 20 21 19 20 20
6 9 8 6 9 8 11 11 12 10 12 13 12 12 10 7 7 9 8 7 4 6 5 6 6 10 12 17 18 14 14 13
6 9 10 10 8 9 12 11 12 13 12 11 13 13 11 12 11 11 9 6 7 5 5 6 4 4 8 12 15 15 6 8
Wind_Direction
223 225 227 222 225 218 215 181 192 195 199 200 197 187 194 183 182 189 191 198 186 185 190 176 171 182 189 190 187 187 184 185
251 223 216 217 218 215 214 210 184 185 199 200 207 196 184 195 182 191 187 192 189 192 192 175 182 187 184 190 185 186 184 181
230 250 214 212 211 222 215 215 202 189 195 206 203 203 204 179 188 188 197 191 194 193 194 189 183 185 188 185 187 181 189 181
223 214 229 230 223 215 222 223 208 206 200 196 191 203 209 179 184 190 194 191 192 194 200 192 183 184 186 185 188 190 184 180
221 214 206 199 219 226 223 227 229 206 195 187 188 202 201 199 195 192 188 191 190 192 193 188 184 188 186 190 193 192 191 185
143 146 164 181 201 242 266 257 225 220 198 187 186 197 208 202 202 196 194 190 190 190 188 188 188 195 187 189 191 203 198 189
135 133 157 175 193 210 211 226 235 225 221 189 191 192 200 206 196 202 196 193 192 191 190 191 192 195 191 192 194 199 204 200
145 162 164 126 133 188 216 222 225 213 220 191 195 199 196 203 203 194 195 193 196 193 195 193 193 196 197 195 197 199 201 201
93 78 120 137 91 16 333 313 222 226 236 215 210 205 208 208 206 199 201 196 197 192 195 197 195 195 197 198 201 204 205 208
77 78 31 38 5 19 358 337 323 282 234 231 216 223 214 213 211 208 201 200 188 193 192 196 196 196 197 195 202 204 207 208
71 36 29 24 8 10 357 343 341 335 300 277 271 303 254 239 226 217 207 202 200 191 194 198 197 199 197 197 200 204 207 211
19 30 21 21 6 1 356 347 345 341 336 316 300 301 294 291 253 239 231 209 193 194 193 194 199 199 201 204 204 203 205 206
7 358 354 356 357 357 347 338 338 340 326 317 315 297 287 300 303 289 238 230 212 194 190 195 199 201 198 202 205 202 206 207
341 335 338 331 333 338 337 326 319 322 321 315 306 303 295 299 301 318 322 281 226 209 188 196 197 200 201 205 205 205 206 208
253 240 234 286 318 323 327 323 324 315 302 302 302 303 298 293 305 304 304 305 302 214 203 198 199 201 202 203 206 208 211 212
239 248 241 265 297 302 307 317 317 307 302 298 287 264 283 299 288 297 294 295 297 309 225 199 202 203 205 206 207 209 211 214
248 255 260 258 266 282 301 288 302 297 294 289 292 282 252 251 279 289 293 295 292 290 270 246 202 207 204 202 204 206 211 214
256 279 287 297 294 295 286 308 305 304 299 294 297 297 307 289 279 276 279 284 300 285 279 260 240 218 196 203 203 211 210 210
272 270 278 279 283 287 293 294 302 298 298 298 292 293 291 294 300 284 282 277 273 266 273 266 242 270 174 180 185 212 176 170